Regional Weather Roundup
Issued by NWS

Home | Current Version | Previous Version | Graphics & Text | Print | Product List | Glossary On
Versions: 1 2 3 4 5 6 7 8 9 10 11 12 13 14 15 16 17 18 19 20 21 22 23 24 25 26 27 28 29 30 31 32 33 34 35 36 37 38 39 40 41 42 43 44 45 46 47 48 49 50
000
ASUS43 KTOP 271308
RWRKS

WEATHER ROUNDUP FOR KANSAS
NATIONAL WEATHER SERVICE GOODLAND KS
800 AM CDT TUE SEP 27 2016

NOTE:  "FAIR" INDICATES FEW OR NO CLOUDS BELOW 12,000 FEET WITH NO
SIGNIFICANT WEATHER AND/OR OBSTRUCTIONS TO VISIBILITY.

KSZ001>006-013>018-027>032-041>047-271400-
NORTHWEST KANSAS

CITY           SKY/WX    TMP DP  RH WIND       PRES   REMARKS
GOODLAND       CLEAR     47  39  74 W8        30.17S
HAYS           CLEAR     48  36  61 NW8       30.10S
HILL CITY      CLEAR     48  43  82 W9        30.12S
RUSSELL        CLEAR     48  43  82 W8        30.08S
$$

KSZ061>065-074>080-084>089-271400-
SOUTHWEST KANSAS

CITY           SKY/WX    TMP DP  RH WIND       PRES   REMARKS
DODGE CITY     CLEAR     53  38  56 W9        30.14S
ELKHART          N/A     52  33  48 W9          N/A
GARDEN CITY    CLEAR     43  37  79 W6        30.15R
GREAT BEND     CLEAR     48  37  66 CALM      30.10S
LIBERAL        CLEAR     50  34  53 NW6       30.18R
PRATT          CLEAR     47  40  77 SW6       30.11S
$$

KSZ066>073-081>083-090>101-271400-
SOUTHEAST KANSAS

CITY           SKY/WX    TMP DP  RH WIND       PRES   REMARKS
CHANUTE        CLEAR     53  47  79 SW6       30.11R
COFFEYVILLE    CLEAR     50  49  96 CALM      30.13R
HUTCHINSON     CLEAR     54  45  71 SW8       30.09F
MEDICINE LODGE   N/A     51  45  79 S5        30.12S
NEWTON         CLEAR    N/A N/A N/A SW10      30.09F
PARSONS        CLEAR     47  46  97 CALM      30.13S
WICHITA INTL   CLEAR     52  48  86 S7        30.10F
WICHITA JABRA  CLEAR     57  46  66 SW9       30.10S
WICHITA MCCONL CLEAR     54  46  75 SW7       30.10F
WINFIELD       CLEAR     51  48  89 S3        30.13F
$$

KSZ007>012-019>026-033>040-048>060-102>105-271400-
NORTHEAST KANSAS

CITY           SKY/WX    TMP DP  RH WIND       PRES   REMARKS
CONCORDIA      CLEAR     55  45  68 W5        30.06S
EMPORIA        CLEAR     57  45  64 SW7       30.08S
LAWRENCE       CLEAR     49  49 100 CALM      30.06F
MANHATTAN      CLEAR     50  48  93 CALM      30.07S
MARYSVILLE     CLEAR     46  45  93 CALM      30.07R
OLATHE IND     CLEAR     52  48  86 SW6       30.07S
OLATHE EXE     CLEAR     53  46  77 SW6       30.07S
SALINA         CLEAR     53  45  74 SW5       30.08F
TOPEKA BILLARD CLEAR     52  48  86 CALM      30.06S
TOPEKA FORBES  CLEAR     50  47  89 CALM      30.06S
$$




USA.gov is the U.S. government's official web portal to all federal, state and local government web resources and services.